TimeEST,TemperatureF,Dew PointF,Humidity,Sea Level PressureIn,VisibilityMPH,Wind Direction,Wind SpeedMPH,Gust SpeedMPH,PrecipitationIn,Events,Conditions,WindDirDegrees,DateUTC
12:10 AM,57.2,57.2,100,29.99,0.2,Calm,Calm,-,N/A,Fog,Fog,0,2012-12-10 05:10:00
12:56 AM,57.0,57.0,100,29.96,0.2,Calm,Calm,-,N/A,Fog,Fog,0,2012-12-10 05:56:00
1:43 AM,55.4,55.4,100,29.96,0.5,West,3.5,-,N/A,Fog,Fog,280,2012-12-10 06:43:00
1:56 AM,55.0,55.0,100,29.94,0.5,Calm,Calm,-,N/A,Fog,Fog,0,2012-12-10 06:56:00
2:26 AM,55.4,55.4,100,29.95,0.2,Calm,Calm,-,N/A,Fog,Fog,0,2012-12-10 07:26:00
2:44 AM,55.4,55.4,100,29.95,0.2,Calm,Calm,-,N/A,Fog,Fog,0,2012-12-10 07:44:00
2:56 AM,55.0,55.0,100,29.94,0.5,Calm,Calm,-,N/A,Fog,Fog,0,2012-12-10 07:56:00
3:15 AM,55.4,55.4,100,29.95,0.8,Calm,Calm,-,N/A,,Mist,0,2012-12-10 08:15:00
3:23 AM,55.4,55.4,100,29.94,0.5,Calm,Calm,-,N/A,Fog,Fog,0,2012-12-10 08:23:00
3:37 AM,55.4,55.4,100,29.93,0.2,Calm,Calm,-,N/A,Fog,Fog,0,2012-12-10 08:37:00
3:56 AM,55.0,55.0,100,29.90,0.2,Calm,Calm,-,N/A,Fog,Fog,0,2012-12-10 08:56:00
4:56 AM,55.0,55.0,100,29.89,0.2,SSW,3.5,-,N/A,Fog,Fog,200,2012-12-10 09:56:00
5:48 AM,55.4,55.4,100,29.88,0.8,South,4.6,-,N/A,,Mist,190,2012-12-10 10:48:00
5:56 AM,55.9,55.9,100,29.86,2.5,SW,3.5,-,N/A,,Overcast,220,2012-12-10 10:56:00
6:04 AM,55.4,55.4,100,29.87,3.0,Calm,Calm,-,N/A,,Overcast,0,2012-12-10 11:04:00
6:09 AM,55.4,55.4,100,29.88,1.8,WSW,3.5,-,N/A,,Overcast,250,2012-12-10 11:09:00
6:54 AM,55.4,55.4,100,29.87,3.0,SSW,5.8,-,N/A,,Overcast,200,2012-12-10 11:54:00
6:56 AM,55.9,55.9,100,29.86,4.0,South,5.8,-,N/A,,Overcast,190,2012-12-10 11:56:00
7:56 AM,57.0,57.0,100,29.85,6.0,SSW,8.1,-,N/A,,Overcast,200,2012-12-10 12:56:00
8:43 AM,57.2,57.2,100,29.85,7.0,SSW,9.2,-,N/A,,Overcast,210,2012-12-10 13:43:00
8:56 AM,57.9,57.9,100,29.84,8.0,SSW,9.2,-,N/A,,Overcast,210,2012-12-10 13:56:00
9:56 AM,59.0,57.9,96,29.84,9.0,SSW,5.8,-,N/A,,Overcast,210,2012-12-10 14:56:00
10:56 AM,61.0,59.0,93,29.84,10.0,SSW,11.5,-,N/A,,Overcast,210,2012-12-10 15:56:00
11:06 AM,60.8,59.0,94,29.84,10.0,SSW,10.4,-,N/A,,Overcast,210,2012-12-10 16:06:00
11:56 AM,63.0,59.0,87,29.81,10.0,SW,12.7,-,N/A,,Overcast,220,2012-12-10 16:56:00
12:22 PM,64.4,59.0,83,29.80,10.0,SW,13.8,20.7,N/A,,Overcast,220,2012-12-10 17:22:00
12:56 PM,64.9,59.0,81,29.76,10.0,SSW,10.4,-,N/A,,Overcast,210,2012-12-10 17:56:00
1:10 PM,64.4,59.0,83,29.77,10.0,SSW,12.7,-,N/A,,Overcast,210,2012-12-10 18:10:00
1:49 PM,66.2,59.0,78,29.75,10.0,South,11.5,-,N/A,,Mostly Cloudy,190,2012-12-10 18:49:00
1:56 PM,66.0,57.9,75,29.73,10.0,South,16.1,20.7,N/A,,Mostly Cloudy,190,2012-12-10 18:56:00
2:56 PM,64.0,60.1,87,29.75,2.5,West,17.3,-,0.07,Rain,Rain,260,2012-12-10 19:56:00
3:00 PM,62.6,60.8,94,29.76,1.8,WSW,16.1,-,0.03,Rain,Heavy Rain,250,2012-12-10 20:00:00
3:07 PM,62.6,60.8,94,29.75,3.0,West,12.7,-,0.04,Rain,Light Rain,260,2012-12-10 20:07:00
3:18 PM,62.6,60.8,94,29.75,10.0,WSW,9.2,-,0.04,Rain,Light Rain,240,2012-12-10 20:18:00
3:56 PM,62.1,61.0,96,29.75,8.0,SSW,6.9,-,0.06,Rain,Light Rain,210,2012-12-10 20:56:00
4:56 PM,60.1,60.1,100,29.75,9.0,SSW,5.8,-,0.05,Rain,Light Rain,200,2012-12-10 21:56:00
5:36 PM,60.8,60.8,100,29.75,10.0,South,8.1,-,0.02,Rain,Light Rain,190,2012-12-10 22:36:00
5:56 PM,60.1,60.1,100,29.73,10.0,South,10.4,-,0.02,,Overcast,180,2012-12-10 22:56:00
6:56 PM,60.1,59.0,96,29.74,10.0,SW,5.8,-,0.01,Rain,Light Rain,220,2012-12-10 23:56:00
7:19 PM,60.8,60.8,100,29.75,10.0,SSW,6.9,-,0.00,Rain,Light Rain,200,2012-12-11 00:19:00
7:56 PM,60.1,60.1,100,29.74,10.0,South,9.2,-,0.00,Rain,Light Rain,190,2012-12-11 00:56:00
8:10 PM,60.8,59.0,94,29.76,10.0,SSW,8.1,-,0.00,,Overcast,200,2012-12-11 01:10:00
8:45 PM,59.0,59.0,100,29.75,10.0,South,8.1,-,0.00,,Mostly Cloudy,190,2012-12-11 01:45:00
8:56 PM,60.1,59.0,96,29.74,10.0,South,8.1,-,0.01,,Mostly Cloudy,190,2012-12-11 01:56:00
9:11 PM,60.8,59.0,94,29.75,10.0,SSW,8.1,-,N/A,,Overcast,200,2012-12-11 02:11:00
9:20 PM,60.8,59.0,94,29.75,10.0,SSW,8.1,-,N/A,,Overcast,200,2012-12-11 02:20:00
9:56 PM,60.1,59.0,96,29.75,10.0,SSW,11.5,-,N/A,,Overcast,210,2012-12-11 02:56:00
10:10 PM,60.8,59.0,94,29.76,10.0,SSW,13.8,-,N/A,,Overcast,210,2012-12-11 03:10:00
10:56 PM,60.1,59.0,96,29.75,10.0,SW,12.7,-,N/A,,Overcast,220,2012-12-11 03:56:00
11:52 PM,59.0,59.0,100,29.77,10.0,SSW,9.2,-,N/A,,Overcast,210,2012-12-11 04:52:00
11:56 PM,59.0,59.0,100,29.76,10.0,SSW,9.2,-,N/A,,Overcast,210,2012-12-11 04:56:00